Weather History for Fullerton, CA

Change the Weather History Date:

Wednesday, June 13, 2012

  Actual Average Record
Temperature  
Mean Temperature 70 °F 69 °F  
Max Temperature 75 °F 78 °F 90 °F (2007)
Min Temperature 64 °F 61 °F 58 °F (1999)
Degree Days  
Heating Degree Days 0 0  
Month to date heating degree days 0 0  
Since 1 June heating degree days 0 0  
Since 1 July heating degree days 863 1224  
Cooling Degree Days 5 4  
Month to date cooling degree days 76 46  
Year to date cooling degree days 332 169  
Since 1 June cooling degree days 76 46  
Growing Degree Days 18 (Base 50)    
Moisture  
Dew Point 56 °F    
Average Humidity 66    
Maximum Humidity 78    
Minimum Humidity 53    
Precipitation  
Precipitation 0.00 in 0.00 in 0.03 in (1965)
Month to date precipitation 0.00 0.07  
Year to date precipitation 3.53 9.63  
Since 1 July precipitation 6.20 13.86  
Snow  
Snow 0.00 in - - ()
Month to date snowfall 0.0  
Year to date snowfall 0.0  
Since 1 July snowfall 0.0  
Snow Depth 0.00 in    
Sea Level Pressure  
Sea Level Pressure 29.83 in    
Wind  
Wind Speed 4 mph (SSW)    
Max Wind Speed 12 mph    
Max Gust Speed 16 mph    
Visibility 10 miles    
Events      
T = Trace of Precipitation, MM = Missing Value Source: NWS Daily Summary

Daily Weather History Graph

Daily Weather History Graph

Search for Another Location

Airport:

Trip Planner

Search our weather history database for the weather conditions in past years. The results will help you decide how hot, cold, wet, or windy it might be!

Date:

Astronomy

Jun. 13, 2012 Rise Set
Actual Time 5:40 AM PDT 8:03 PM PDT
Civil Twilight 5:11 AM PDT 8:33 PM PDT
Nautical Twilight 4:35 AM PDT 9:08 PM PDT
Astronomical Twilight 3:56 AM PDT 9:47 PM PDT
Moon 1:44 AM PDT (6/13) 3:04 PM PDT (6/13)
Length of Visible Light 15h 21m
Length of Day
14h 23m
Waning Crescent, 28% of the Moon is Illuminated
Jun 13
Waning Crescent
Jun 19
New
Jun 26
First Quarter
Jul 3
Full
Jul 10
Last Quarter

Hourly Weather History & Observations

Time (PDT) Temp. Dew Point Humidity Pressure Visibility Wind Dir Wind Speed Gust Speed Precip Events Conditions
12:53 AM 66.0 °F 57.0 °F 73% 29.88 in 9.0 mi Calm Calm - N/A   Overcast
1:53 AM 64.9 °F 57.0 °F 75% 29.87 in 9.0 mi Calm Calm - N/A   Overcast
2:53 AM 64.9 °F 57.0 °F 75% 29.86 in 9.0 mi SSE 3.5 mph - N/A   Overcast
3:53 AM 64.9 °F 55.9 °F 73% 29.86 in 9.0 mi Calm Calm - N/A   Overcast
4:53 AM 64.9 °F 55.9 °F 73% 29.85 in 9.0 mi Calm Calm - N/A   Overcast
5:53 AM 64.0 °F 57.0 °F 78% 29.85 in 9.0 mi SSW 3.5 mph - N/A   Overcast
7:53 AM 66.0 °F 55.9 °F 70% 29.86 in 9.0 mi South 3.5 mph - N/A   Overcast
8:10 AM 66.2 °F 55.4 °F 68% 29.86 in 8.0 mi Calm Calm - N/A   Overcast
8:53 AM 66.9 °F 55.9 °F 68% 29.86 in 9.0 mi South 4.6 mph - N/A   Overcast
9:53 AM 70.0 °F 55.0 °F 59% 29.86 in 10.0 mi Calm Calm - N/A   Scattered Clouds
10:53 AM 73.0 °F 55.0 °F 53% 29.86 in 10.0 mi Variable 3.5 mph - N/A   Clear
11:53 AM 72.0 °F 57.0 °F 59% 29.86 in 10.0 mi SSW 8.1 mph - N/A   Partly Cloudy
12:53 PM 73.9 °F 57.0 °F 55% 29.85 in 10.0 mi WSW 6.9 mph - N/A   Partly Cloudy
1:53 PM 73.0 °F 57.0 °F 57% 29.84 in 10.0 mi South 9.2 mph - N/A   Clear
2:53 PM 73.0 °F 57.0 °F 57% 29.82 in 10.0 mi SW 8.1 mph - N/A   Clear
3:53 PM 73.9 °F 57.0 °F 55% 29.81 in 10.0 mi SSW 8.1 mph - N/A   Clear
4:53 PM 73.0 °F 55.9 °F 55% 29.80 in 10.0 mi SSW 8.1 mph - N/A   Clear
5:53 PM 71.1 °F 55.0 °F 57% 29.79 in 10.0 mi SW 8.1 mph - N/A   Clear
6:53 PM 69.1 °F 55.9 °F 63% 29.78 in 10.0 mi SSW 9.2 mph - N/A   Clear
7:53 PM 66.9 °F 57.0 °F 70% 29.79 in 10.0 mi SSW 6.9 mph - N/A   Clear
8:49 PM 66.2 °F 57.2 °F 73% 29.80 in 10.0 mi Variable 4.6 mph - N/A   Mostly Cloudy
8:53 PM 66.0 °F 57.0 °F 73% 29.80 in 10.0 mi SSW 4.6 mph - N/A   Mostly Cloudy
9:28 PM 66.2 °F 57.2 °F 73% 29.81 in 10.0 mi South 5.8 mph - N/A   Overcast
9:53 PM 66.9 °F 57.0 °F 70% 29.82 in 10.0 mi South 5.8 mph - N/A   Overcast
10:53 PM 66.9 °F 57.0 °F 70% 29.82 in 10.0 mi South 5.8 mph - N/A   Overcast
11:53 PM 66.9 °F 55.9 °F 68% 29.81 in 10.0 mi SSE 4.6 mph - N/A   Overcast